Location: Guadanolo
(41.9167°N, 12.9333°E)
Time: 10:48:40
(UTC+00:00)

Nadezhda 1 Rocket - Pass Details

Date: 22 December 2019
Orbit: 941 x 1006 km, 83.0° (Epoch: 28 January)

Event Time Altitude Azimuth Distance (km) Brightness Sun altitude
Rises 18:41:27 0° 350° (N) 3,621 7.1 -32.7°
Reaches altitude 10° 18:43:57 10° 349° (N) 2,668 6.3 -33.1°
Enters shadow 18:45:21 18° 348° (NNW) 2,148 5.8 -33.4°
